Wind_Speed
13 11 14 15 16 19 20 20 20 17 15 15 15 16 15 13 14 14 15 18 19 15 15 14 13 13 12 10 10 10 10 9 11 11 11 11 12 12 12 11 10 9 9 12 16 20 17 13 8 7 9 10 9 9 7 6 7 5 6 7 7 8 9 6 8 8 8 10 10 10 10 11 11 11 12 12 11 11 11 11 10 10 10 9 9 10
14 14 17 19 19 19 20 20 21 19 15 13 14 15 14 13 11 11 12 16 18 14 12 14 13 12 12 10 9 10 10 9 12 14 12 11 11 11 13 13 12 10 9 12 16 19 19 14 11 11 11 13 10 8 10 9 6 6 5 5 6 8 8 5 7 8 7 9 10 9 10 11 12 13 13 13 12 12 11 10 10 10 10 10 10 10
15 15 19 21 18 18 19 20 21 20 14 11 12 13 13 13 10 11 12 16 16 11 9 14 12 11 11 9 8 10 10 8 10 11 9 11 11 11 12 12 13 12 12 13 14 17 21 19 17 14 12 15 14 10 12 10 6 8 7 5 6 7 7 5 4 5 7 10 11 10 11 13 13 13 13 12 11 11 11 11 11 10 10 10 10 11
14 14 19 20 18 20 20 20 21 16 11 11 11 11 13 13 12 10 12 16 15 9 9 12 10 9 9 7 8 11 10 8 9 9 9 11 11 12 12 11 12 13 13 15 14 15 20 19 19 20 15 14 14 12 13 11 7 9 9 9 9 6 7 7 5 8 11 13 14 13 13 14 14 13 12 12 11 11 11 11 11 11 10 10 10 10
14 14 18 19 20 22 19 19 21 12 9 13 12 12 13 13 13 10 12 16 14 10 11 13 8 7 9 9 11 10 8 8 8 11 12 11 11 12 13 12 13 13 13 15 16 15 18 18 18 20 16 13 14 14 14 11 9 10 11 11 9 6 8 9 8 10 12 13 14 14 14 15 14 13 12 11 10 10 10 10 10 11 11 10 10 10
14 16 19 20 21 21 18 18 20 13 9 12 13 15 12 14 15 13 15 15 12 10 14 14 8 5 9 9 9 9 8 10 10 13 13 11 12 13 13 13 13 13 12 13 15 16 19 21 20 20 16 13 12 12 13 12 9 10 11 11 9 8 8 8 7 7 8 10 11 12 13 13 12 11 10 9 9 9 9 9 9 10 10 10 10 10
12 17 20 21 20 21 19 17 18 16 10 9 13 14 11 15 18 17 19 16 10 10 14 15 10 5 8 9 10 10 11 13 12 12 13 12 12 12 11 12 12 12 11 12 14 16 19 21 22 22 17 14 12 12 12 13 10 9 12 12 10 8 8 7 7 7 7 9 10 10 11 11 11 10 10 9 9 9 9 8 8 9 9 10 10 10
13 19 22 22 22 20 16 13 17 19 12 7 13 11 10 13 17 16 18 14 10 10 12 15 14 6 7 10 12 13 13 15 14 12 13 12 13 13 12 12 12 12 12 11 12 14 16 19 21 22 20 17 15 13 13 14 12 9 12 12 10 9 9 9 9 9 9 10 10 10 10 10 10 10 10 9 9 10 9 9 8 7 8 10 10 10
16 21 22 22 19 15 13 14 18 20 14 8 15 13 8 10 14 15 15 12 11 11 10 14 16 10 7 10 12 13 13 15 15 16 15 14 15 14 13 13 12 12 12 12 12 12 15 18 20 22 22 19 17 15 14 14 13 11 11 12 11 10 10 10 10 11 11 11 11 10 9 9 9 9 9 9 9 9 9 9 8 7 8 9 9 9
15 16 17 17 15 12 15 16 17 20 15 8 15 15 9 9 12 14 13 11 11 11 10 14 17 11 6 10 13 11 12 14 13 14 15 15 15 15 14 13 12 12 11 11 11 13 15 18 20 21 22 20 17 16 15 15 14 14 13 12 12 11 11 11 11 12 11 10 10 10 9 9 9 8 8 8 8 8 8 8 8 8 8 8 8 9
11 11 13 14 13 13 16 15 15 19 16 8 13 13 10 10 11 10 10 9 10 10 11 16 18 14 9 10 12 10 10 13 12 12 14 15 16 15 14 13 12 11 11 11 11 14 17 19 21 21 21 20 18 17 16 15 15 14 13 13 13 12 11 11 11 12 12 11 10 10 10 9 8 8 7 8 8 8 7 8 8 8 8 8 8 8
14 12 12 13 16 15 16 15 14 19 16 9 11 12 10 9 8 8 9 9 10 10 12 16 18 17 12 7 10 11 12 15 15 14 15 17 17 15 13 13 13 12 12 12 11 13 16 18 20 20 21 21 19 17 15 14 15 14 13 13 14 12 11 12 12 12 12 11 11 10 10 9 8 7 8 8 8 8 8 8 8 8 7 8 8 8
14 14 14 14 17 17 15 14 13 16 15 10 11 12 11 9 8 9 10 9 10 9 11 16 17 14 10 8 14 17 19 19 17 15 16 18 17 16 15 14 13 12 13 13 11 12 13 15 18 20 21 20 18 16 14 13 14 14 13 13 13 12 11 12 12 12 11 11 11 10 9 9 8 8 8 8 9 9 9 8 8 8 8 8 8 8
11 12 17 17 14 15 17 13 11 13 14 12 12 11 11 10 9 10 10 9 9 8 10 15 15 11 9 8 14 19 20 19 17 16 17 17 16 15 16 15 13 12 13 12 12 12 12 15 18 19 19 19 18 16 14 13 14 14 13 12 12 11 11 12 11 11 11 11 10 9 9 9 9 9 9 10 10 10 9 9 9 9 8 8 8 9
11 10 16 17 13 15 18 13 12 14 14 12 12 11 10 9 8 8 9 8 10 9 9 12 12 10 7 4 8 14 16 16 16 15 16 17 15 14 14 14 13 12 11 12 13 12 13 16 19 18 18 19 19 17 15 14 14 13 12 11 11 11 11 11 10 10 10 10 10 9 9 10 9 10 11 11 11 10 10 11 10 10 9 9 9 9
13 10 15 17 13 16 16 14 15 15 13 11 11 11 10 10 8 7 6 5 6 9 8 8 6 3 2 1 3 9 14 15 15 15 16 18 18 16 14 13 13 12 10 11 13 12 14 18 19 19 19 19 19 17 16 15 14 13 12 11 11 10 10 10 9 9 9 10 10 10 10 11 11 11 12 12 11 12 12 12 11 10 10 9 9 9
11 9 17 18 14 18 18 14 15 13 10 9 11 12 10 11 10 7 5 2 3 8 8 8 6 5 4 2 4 10 14 15 16 17 17 18 19 18 15 13 13 12 12 12 13 14 16 18 19 19 19 19 19 17 17 15 14 13 12 11 11 10 10 9 9 9 9 10 10 10 11 11 12 12 12 13 13 12 12 12 11 11 10 9 9 8
11 9 16 19 15 18 19 15 14 13 11 8 10 11 9 11 11 6 6 5 6 9 7 9 12 9 8 6 8 13 15 16 18 19 19 19 19 17 15 14 14 14 14 14 15 15 16 19 19 19 19 19 18 18 17 16 14 13 11 10 10 10 10 9 9 9 9 10 10 11 12 12 12 12 13 13 13 12 12 12 11 10 10 9 8 8
11 8 13 18 15 16 18 15 13 14 16 12 10 10 9 10 10 8 7 7 9 9 7 11 13 11 10 8 12 15 16 17 18 18 20 20 19 17 15 16 16 15 15 15 15 13 15 18 20 20 19 19 18 18 17 16 15 13 11 10 10 10 11 10 10 9 9 9 10 11 12 12 13 13 13 13 12 13 13 12 12 11 10 9 8 8
11 8 9 14 15 15 15 13 10 12 15 14 11 12 10 8 8 9 7 6 9 8 7 11 11 9 9 10 16 18 17 18 19 18 19 20 19 16 15 16 16 15 15 14 14 13 15 19 21 20 20 19 19 18 18 17 16 14 12 11 11 12 12 11 11 11 10 11 11 12 12 13 13 13 13 13 13 13 13 12 11 11 10 9 9 9
8 7 8 12 15 15 12 11 12 12 13 11 9 11 10 7 7 8 7 7 8 8 7 9 9 8 7 9 15 18 18 18 18 18 18 18 18 16 16 15 14 14 15 15 15 14 16 20 21 21 21 20 19 18 18 17 16 15 13 12 12 13 13 12 12 12 12 12 13 14 14 14 13 13 14 13 13 13 12 12 11 10 10 9 9 9
7 8 9 10 13 13 12 14 15 15 15 11 7 9 10 9 8 8 9 9 8 7 8 7 8 7 5 8 11 14 15 16 18 19 18 18 19 17 16 16 14 14 15 16 16 15 17 21 22 22 21 20 19 19 18 17 16 14 12 12 12 13 13 12 12 12 13 14 14 14 14 13 13 14 14 13 13 13 12 11 11 10 9 9 9 9
3 3 9 10 10 11 13 16 17 17 17 14 10 11 10 10 10 8 9 10 8 9 9 7 7 4 1 7 11 12 13 15 16 16 16 17 18 16 16 16 15 14 15 16 17 16 19 22 22 22 22 20 20 19 18 17 15 14 12 12 11 12 13 13 12 13 14 14 14 14 14 14 14 14 14 13 13 12 12 11 10 9 9 9 9 9
1 2 9 10 9 10 12 15 16 17 15 13 12 13 10 10 11 9 7 7 7 9 9 7 7 3 2 4 8 12 15 15 14 15 16 15 15 16 16 16 15 16 16 17 16 17 20 22 22 22 21 20 19 19 17 16 15 13 12 12 11 12 14 14 14 14 15 15 15 14 14 14 14 14 13 13 13 12 12 11 10 10 9 9 9 9
4 7 9 9 10 11 12 13 14 15 13 10 12 14 13 13 14 11 9 6 7 10 11 9 6 5 4 3 4 10 14 15 14 15 15 14 15 16 16 15 15 16 17 18 17 16 19 20 20 21 21 20 20 19 17 16 15 14 13 13 15 15 15 15 15 16 15 15 15 15 15 15 14 14 14 13 13 12 11 11 10 10 10 9 9 9
7 8 9 9 10 11 11 10 10 12 11 8 11 17 17 17 16 12 9 7 8 10 11 11 6 5 7 7 8 9 12 14 15 15 15 15 17 17 15 14 14 16 17 19 17 16 17 18 20 22 21 20 20 19 18 17 15 15 15 15 16 17 16 16 17 17 16 15 16 16 15 15 14 14 13 13 12 12 11 11 10 10 10 9 9 9
7 8 10 10 10 10 10 10 10 11 12 10 12 16 18 18 17 12 8 8 8 8 9 10 7 7 9 11 13 12 12 13 15 14 14 16 18 18 17 15 14 15 17 17 16 15 17 18 20 22 22 21 21 19 18 17 16 16 16 17 17 17 17 17 17 17 16 16 16 16 15 15 14 13 13 12 12 11 11 10 10 10 9 9 10 10
5 8 11 11 10 8 7 12 16 15 15 16 15 14 15 18 18 13 10 10 8 7 9 10 11 10 9 11 14 14 13 13 15 15 15 16 18 18 17 16 15 16 16 17 17 18 19 18 19 22 23 22 21 20 18 17 17 16 17 18 18 18 18 18 18 18 17 16 16 16 15 14 14 13 13 12 12 11 11 10 10 10 9 10 10 10
5 8 11 11 9 5 2 6 14 16 15 16 16 15 14 16 17 15 12 11 10 8 8 9 12 13 10 11 13 15 16 15 16 16 14 15 17 17 17 17 17 18 18 18 19 20 20 18 18 21 23 22 22 21 19 18 17 17 17 18 18 18 18 18 18 18 17 16 16 16 15 15 14 14 13 13 12 11 11 10 10 10 10 10 10 10
6 6 10 12 9 6 1 1 7 12 12 14 17 17 16 15 16 16 14 13 12 10 9 8 9 11 10 10 12 14 14 13 14 15 15 17 19 19 19 19 19 19 19 19 19 19 19 18 20 23 24 23 22 21 19 18 18 18 18 18 18 19 19 19 19 18 17 17 16 16 15 15 14 14 13 13 12 12 11 10 10 10 10 11 11 11
6 4 9 10 8 8 6 3 5 9 9 11 13 15 17 17 16 15 14 13 12 11 11 8 7 8 7 8 12 13 12 13 16 18 17 18 20 21 22 22 21 21 20 20 20 19 19 18 21 23 24 23 23 22 20 19 19 19 19 19 19 19 19 19 19 18 17 17 17 16 16 15 15 14 14 13 12 12 11 10 10 10 10 10 11 11
7 4 7 8 8 9 10 8 9 7 6 9 11 12 15 15 14 14 13 13 12 13 13 11 8 7 6 6 8 12 15 16 18 19 17 17 20 22 23 22 22 22 21 21 20 19 19 19 20 23 24 24 23 21 20 20 21 21 20 20 20 19 19 19 19 18 18 17 17 16 16 15 15 15 14 13 13 12 11 11 10 10 10 10 11 10
8 6 6 7 7 8 11 12 10 7 7 8 8 10 13 12 12 13 13 14 14 13 12 10 9 7 7 8 8 11 15 16 17 17 17 18 20 21 20 21 21 22 21 21 20 20 20 21 23 25 25 24 23 22 21 21 22 22 22 21 20 20 20 20 19 18 18 17 17 16 16 15 15 14 14 13 12 12 12 11 9 9 9 10 10 10
10 8 6 7 6 7 10 10 9 9 8 4 2 4 9 11 12 12 12 14 15 14 11 9 10 10 9 10 10 12 15 15 15 15 16 17 17 18 19 20 20 21 22 21 21 20 21 24 26 26 25 25 23 22 22 22 22 22 22 21 21 21 20 20 19 18 18 17 17 17 16 15 15 14 14 13 12 12 12 10 9 8 8 9 9 9
10 8 5 6 6 7 8 8 9 9 5 2 3 2 1 6 10 11 12 13 14 14 14 12 12 13 11 11 12 13 14 14 13 14 16 17 17 18 19 19 20 22 22 21 21 21 23 27 27 26 26 25 24 23 23 22 23 24 23 21 21 21 20 20 19 18 18 17 17 16 16 16 15 14 14 13 12 12 11 9 8 8 8 8 8 8
9 7 6 5 6 7 7 8 8 5 4 3 2 3 2 3 7 9 11 12 13 14 14 14 13 12 12 11 11 10 10 11 10 12 15 17 17 18 19 18 20 22 21 21 22 23 26 29 28 27 27 26 25 24 23 23 24 24 23 22 21 21 20 19 19 18 18 17 17 17 16 16 15 14 13 13 12 11 10 9 8 8 7 7 7 8
9 8 6 5 6 7 7 8 6 3 4 4 3 4 4 5 8 10 9 11 14 15 15 15 14 14 12 10 8 8 10 10 8 9 13 16 18 19 18 18 21 22 22 25 28 28 29 31 30 28 27 26 26 24 23 24 25 24 23 22 21 21 20 20 19 18 18 17 17 17 16 16 15 14 13 13 12 11 9 8 7 7 7 7 7 7
9 9 7 6 6 5 6 7 7 6 6 7 7 8 7 5 6 9 8 8 12 15 16 16 16 16 13 9 9 11 11 9 7 8 13 17 18 18 18 18 22 25 26 29 31 30 30 31 30 28 27 27 26 24 24 25 25 25 23 22 22 22 21 20 19 18 18 17 17 17 16 16 15 14 13 12 12 10 9 8 7 7 6 7 7 7
9 8 7 7 6 6 7 7 7 7 6 4 6 9 9 5 4 6 7 7 11 16 18 17 17 16 13 12 13 12 10 8 8 8 14 18 17 18 18 18 22 26 29 31 32 31 30 30 28 28 27 27 26 25 25 25 25 25 23 22 22 22 21 20 19 19 18 18 18 17 16 16 15 14 13 12 11 10 8 7 7 6 6 6 6 6
9 7 7 8 8 8 8 7 6 5 2 5 9 9 8 7 6 6 6 3 5 11 15 16 16 15 13 14 13 11 9 7 5 5 15 19 17 17 19 19 22 26 29 32 33 33 32 31 30 29 28 27 26 26 26 25 24 24 23 22 22 21 20 20 19 19 19 18 18 17 16 15 15 14 13 12 11 9 8 7 7 6 6 6 6 6
8 6 7 8 8 8 9 8 7 3 3 6 10 10 9 8 5 5 4 0 2 3 8 13 14 14 14 14 12 10 7 1 3 8 17 20 17 17 19 23 26 28 30 31 32 32 33 31 31 30 28 27 27 27 25 24 23 23 23 22 21 21 21 21 20 19 19 18 18 17 16 16 15 14 13 12 10 9 8 7 7 6 6 6 6 6
8 7 7 7 8 8 7 7 8 5 1 4 8 10 9 7 4 1 2 1 3 2 4 9 11 12 14 13 11 6 4 6 8 13 18 19 19 18 18 22 24 24 27 30 31 32 31 29 29 29 27 26 27 26 24 23 22 22 22 22 21 21 21 21 20 20 19 19 18 17 16 16 15 14 12 11 10 9 8 7 6 6 6 6 6 5
6 7 7 7 7 7 7 8 8 4 3 7 10 8 6 5 0 2 1 1 1 1 3 5 7 9 11 11 8 5 7 8 10 14 17 18 19 19 20 22 22 22 26 30 31 32 30 28 28 28 26 26 26 25 24 23 23 23 22 22 22 22 22 21 21 21 20 19 18 17 17 16 15 13 12 11 10 9 8 7 6 5 5 5 4 4
3 5 6 6 6 6 6 6 3 0 3 7 6 3 1 2 4 4 2 1 1 1 2 4 5 7 9 10 8 8 8 9 11 14 16 17 18 19 20 22 25 28 30 32 32 31 30 30 28 27 27 27 25 24 23 24 23 23 22 23 23 23 22 22 21 21 20 19 18 17 17 16 14 13 11 11 10 9 8 7 6 5 5 3 3 3
1 3 3 2 3 4 3 1 3 3 3 4 1 3 4 5 5 4 4 2 1 1 1 3 5 7 9 10 9 9 8 9 11 14 15 16 17 18 19 22 27 30 32 32 32 31 31 31 30 28 27 26 25 24 23 23 24 24 23 24 24 23 23 23 21 21 20 19 18 18 16 16 14 13 12 11 10 9 8 7 6 5 5 4 3 3
2 1 2 2 2 4 3 1 0 1 3 4 2 4 4 3 4 3 3 3 3 2 1 1 4 7 9 10 10 8 8 10 12 14 15 15 15 17 20 23 27 31 32 32 32 32 31 31 30 29 27 26 25 24 23 23 24 25 24 24 24 24 23 23 21 21 20 19 18 17 17 16 14 13 12 11 9 9 8 7 6 5 4 4 3 3
4 3 3 4 4 3 2 2 2 1 2 3 2 3 3 2 3 4 3 3 3 2 2 1 4 7 9 9 10 9 9 11 12 13 14 14 16 18 19 20 25 30 32 33 34 33 32 30 29 29 28 27 25 24 24 24 24 25 25 25 24 24 23 22 21 20 20 19 18 17 16 15 14 13 12 11 9 8 7 6 6 5 4 4 3 2
3 1 4 5 5 5 3 2 3 2 2 2 3 3 3 4 4 3 3 3 3 3 1 0 3 7 8 9 10 10 10 11 11 12 14 14 15 16 17 20 26 30 31 33 35 34 32 31 30 30 29 27 26 25 25 25 24 25 25 25 24 24 23 22 21 20 20 19 18 17 16 15 14 14 12 11 10 9 7 6 6 5 4 3 3 2
2 3 3 3 5 7 5 3 2 4 4 3 3 2 1 3 4 3 2 2 2 4 4 2 3 5 6 8 9 10 12 12 11 13 15 14 14 16 18 22 28 29 30 33 34 34 32 32 32 31 29 28 27 26 26 25 25 26 26 25 25 24 23 22 21 20 19 19 17 16 16 15 15 14 12 11 10 8 7 6 4 5 7 5 3 2
5 5 3 3 5 5 1 1 1 2 2 1 1 1 2 2 2 2 3 2 2 4 5 5 5 5 5 7 8 9 11 12 12 13 14 13 15 18 21 25 28 29 30 32 32 31 31 32 32 32 29 28 27 26 26 26 26 26 26 25 24 24 23 22 21 20 19 18 17 16 16 15 14 13 12 12 11 9 8 6 4 6 8 5 3 4
2 3 3 3 3 2 2 3 2 2 1 1 3 2 1 2 2 2 2 2 2 2 3 5 6 7 7 8 8 9 10 11 11 13 13 13 16 20 22 26 29 29 31 32 31 31 31 32 33 32 29 28 27 27 27 26 26 26 26 25 25 24 24 23 21 19 19 18 17 17 16 15 14 13 12 12 12 10 10 9 7 6 5 3 3 4
Wind_Direction
191 195 202 207 205 203 204 206 216 220 213 206 194 205 215 203 207 195 170 175 183 199 204 177 141 139 147 152 167 172 177 175 164 193 212 179 162 154 148 139 118 102 88 87 93 94 103 134 138 85 102 123 113 104 112 143 172 196 183 173 164 156 157 180 224 205 155 136 129 122 120 117 111 104 96 90 85 81 76 70 66 61 55 50 44 38
194 206 207 205 206 203 203 207 213 221 226 218 202 201 213 212 195 168 154 169 184 203 198 166 148 146 154 169 182 182 188 187 176 192 203 175 161 157 145 130 114 105 108 103 95 106 118 123 113 85 102 137 132 117 138 152 171 190 184 174 160 145 140 172 227 212 154 128 124 119 116 112 104 100 98 93 86 81 76 67 61 56 49 44 39 31
201 212 207 200 205 205 202 206 211 217 223 226 213 199 209 211 176 150 161 175 188 206 183 162 158 150 155 170 183 188 193 191 182 191 196 178 168 157 140 130 129 124 125 120 103 107 113 110 112 107 116 140 140 140 151 153 165 175 172 153 137 126 128 157 202 177 135 115 110 111 112 107 99 99 102 99 92 86 81 71 64 58 49 44 38 31
200 207 202 196 201 207 202 202 208 211 211 226 217 197 210 201 170 160 174 183 193 197 170 164 156 143 155 177 189 194 190 175 182 196 194 180 167 150 139 139 142 135 129 128 121 115 113 111 116 120 124 136 136 137 145 152 160 160 155 135 123 122 132 146 148 126 119 112 107 103 103 105 103 103 103 101 96 91 84 74 64 56 51 49 42 31
203 197 197 196 200 206 201 197 204 200 196 220 220 209 209 182 168 171 171 184 193 183 175 170 153 149 169 180 179 180 178 173 185 192 186 176 162 152 149 150 145 139 136 136 136 130 123 119 118 119 123 136 136 128 131 142 140 133 130 120 120 132 136 139 136 121 116 112 109 105 105 108 109 109 109 108 103 95 86 77 65 56 51 48 42 31
204 193 193 199 198 201 200 196 200 194 191 212 219 223 207 166 178 188 170 180 192 185 183 177 174 175 174 184 176 163 172 181 185 187 184 175 166 163 160 153 144 139 139 138 139 136 131 128 126 125 126 134 128 111 115 125 121 117 116 116 124 127 125 130 130 123 119 113 111 116 121 121 119 115 110 105 101 93 84 79 71 59 49 42 40 36
203 191 191 199 194 196 203 196 191 191 200 206 203 229 227 180 191 193 175 183 195 186 183 189 204 180 163 198 194 179 185 183 183 189 188 181 171 167 159 151 149 144 135 132 134 133 132 132 132 130 129 129 116 99 103 112 111 112 116 124 130 122 116 113 107 107 109 105 100 103 112 116 118 115 107 97 92 89 84 80 74 63 50 42 40 38
197 191 190 196 193 196 203 192 186 191 212 207 175 210 248 198 191 185 179 192 199 180 179 203 221 203 167 196 195 190 193 187 184 190 191 185 175 165 157 152 151 146 138 137 137 136 135 134 132 129 126 121 114 108 111 113 114 115 116 119 119 110 101 91 85 81 81 83 80 80 87 91 94 101 103 97 90 89 88 80 71 65 55 47 42 38
195 199 190 189 190 192 196 191 186 193 219 211 164 184 228 194 181 179 184 200 201 191 190 204 219 223 184 179 187 192 195 192 187 187 190 186 177 166 158 153 150 147 145 142 141 142 139 135 131 127 124 121 118 117 116 114 116 120 120 117 113 105 91 81 76 70 69 72 73 79 89 92 90 96 102 103 98 92 87 77 70 68 61 53 46 42
192 193 180 181 188 189 195 194 183 191 215 194 159 178 199 184 185 190 198 207 201 203 208 202 209 224 200 171 181 189 197 198 189 187 188 181 175 168 160 156 151 148 146 142 141 140 138 134 128 122 119 118 118 119 120 122 126 124 118 113 105 96 85 80 76 73 73 73 74 80 91 99 103 105 106 107 105 97 89 81 76 71 65 58 50 46
159 162 174 190 200 196 196 194 182 192 204 170 161 184 188 191 199 201 210 214 207 211 213 206 206 218 218 182 175 181 198 199 190 190 185 178 176 170 164 160 153 150 144 140 138 133 130 129 126 121 118 116 120 124 124 125 125 117 112 108 100 90 84 82 81 79 77 77 80 82 83 90 101 108 109 106 105 102 96 88 82 78 70 62 57 51
154 174 187 196 205 200 194 189 182 193 195 167 176 191 183 191 199 202 212 212 216 218 210 210 209 216 226 196 171 177 195 202 199 192 183 180 176 165 164 162 155 151 143 141 140 134 132 130 128 125 122 121 123 124 124 122 118 111 108 105 98 91 85 83 84 83 82 81 83 84 84 86 93 103 107 105 101 100 99 94 91 85 75 69 64 56
172 189 186 191 203 200 192 183 176 191 191 176 188 191 181 187 189 200 207 206 218 219 209 210 206 215 232 199 177 183 193 203 200 188 183 182 170 161 165 159 152 150 143 143 145 142 139 135 132 130 127 127 125 125 125 117 109 103 100 99 95 91 84 82 83 82 82 82 82 84 87 88 91 97 102 103 101 99 100 99 95 88 81 76 67 57
175 188 185 189 194 197 201 187 172 189 189 183 192 189 185 187 185 197 202 201 216 215 210 211 202 210 233 199 180 182 187 195 192 180 179 175 163 163 164 153 149 152 147 148 151 149 145 138 134 131 129 127 127 130 126 111 102 100 99 100 96 91 85 81 80 79 79 79 81 85 91 95 98 99 100 101 101 101 100 98 96 92 86 80 69 60
179 185 186 188 181 192 204 191 179 189 186 189 200 198 200 199 188 195 201 199 208 205 209 215 202 203 221 186 163 173 176 186 185 171 167 166 161 162 157 149 152 158 157 155 154 151 142 136 133 132 131 129 130 132 124 113 111 109 106 104 99 92 85 80 77 78 78 77 81 88 93 99 101 103 102 100 99 99 98 98 95 90 84 79 72 65
191 186 180 183 178 185 196 193 191 192 186 190 206 210 209 205 188 189 217 228 216 205 201 206 192 162 198 97 138 175 176 176 169 157 159 162 162 162 156 154 159 162 162 154 150 148 140 136 135 135 134 133 132 129 123 122 121 117 113 107 102 95 88 85 82 81 81 81 86 91 95 100 102 103 102 99 98 97 97 97 93 86 81 79 74 68
194 175 163 171 178 185 193 200 196 194 188 184 205 214 207 209 204 189 209 254 233 216 196 189 187 137 140 190 187 190 181 168 160 159 163 158 156 161 160 159 163 161 160 153 147 147 141 138 138 137 136 136 135 131 127 126 121 118 118 112 107 101 95 92 88 88 89 89 89 91 96 99 100 99 98 98 99 97 95 93 89 85 81 78 75 70
193 158 155 172 184 184 192 207 202 200 204 191 198 206 198 215 225 204 197 194 205 219 190 189 206 187 176 186 182 191 185 168 162 163 164 158 157 163 161 163 168 161 158 152 146 146 144 141 139 137 137 137 136 132 128 125 121 121 121 117 114 110 105 102 99 99 98 95 94 93 96 98 98 98 98 98 97 94 92 89 86 85 81 78 76 73
193 163 160 181 184 174 186 207 203 199 214 215 199 198 198 211 214 198 201 197 200 216 196 196 211 209 201 177 168 188 188 172 167 165 166 167 168 170 165 168 171 162 157 152 147 148 146 143 141 139 138 137 135 132 128 126 125 124 122 119 118 114 112 110 107 106 104 102 101 98 98 97 98 98 97 95 92 90 89 87 86 84 81 80 77 74
195 171 164 180 176 168 181 203 200 188 208 221 207 202 209 213 212 205 200 197 202 210 205 201 207 216 214 176 168 186 188 178 176 171 172 173 172 174 170 169 170 163 158 152 149 149 147 146 144 141 140 139 136 134 130 130 129 128 127 125 121 116 115 112 109 109 106 105 104 104 102 99 98 96 94 92 90 88 88 86 86 84 81 81 76 73
190 168 173 180 176 177 183 197 200 185 192 211 209 203 201 192 212 216 202 205 211 204 201 205 208 217 211 170 171 185 186 184 184 177 176 176 172 173 168 163 164 162 159 153 149 149 148 147 144 142 142 140 139 137 135 135 134 133 134 128 121 118 115 113 111 110 108 108 107 106 105 100 96 94 92 91 89 88 87 84 84 83 81 80 74 71
179 173 176 176 178 187 187 186 197 197 192 196 203 206 197 184 197 209 205 210 216 209 207 211 213 216 195 159 167 182 185 187 188 183 180 176 174 173 164 160 162 163 159 153 150 150 148 146 144 144 144 143 143 141 140 140 138 138 136 129 126 125 120 117 116 113 111 111 110 108 104 99 96 95 93 92 90 88 87 84 83 82 80 78 72 69
169 183 172 174 180 185 183 182 197 209 201 193 204 213 201 192 202 209 206 204 212 222 221 217 215 218 136 147 166 182 187 188 190 185 179 176 173 166 158 160 165 163 157 152 151 151 147 145 145 145 145 146 146 145 145 144 140 137 134 131 134 130 123 120 119 117 115 115 113 109 105 101 99 98 95 93 91 88 86 84 82 80 78 77 73 68
83 221 173 171 172 176 182 183 195 213 209 194 206 219 211 199 205 218 222 205 209 224 221 212 203 180 81 126 173 192 190 187 185 177 174 174 165 157 156 159 162 158 154 153 150 148 147 146 146 146 147 149 150 149 149 146 141 140 137 134 131 125 122 123 124 122 120 118 114 109 106 103 101 99 95 92 90 88 87 85 82 79 76 75 73 69
189 209 179 169 171 177 184 181 187 206 212 202 203 212 218 210 201 212 233 222 212 223 225 224 205 162 129 126 183 196 182 174 171 167 172 172 160 158 161 160 158 155 153 154 150 147 149 149 149 150 151 153 153 151 150 146 143 142 139 134 129 125 125 127 126 123 122 119 115 110 107 104 101 99 95 93 91 89 88 85 82 79 76 73 71 68
197 208 186 177 182 182 182 183 189 195 199 209 207 203 210 216 206 204 222 225 215 216 224 235 217 140 138 160 178 183 169 164 165 167 176 174 158 156 161 161 160 157 156 155 151 149 152 153 153 154 154 155 154 152 151 148 146 142 137 132 129 127 128 127 125 125 124 121 117 113 110 107 103 101 98 95 94 91 89 87 84 81 76 72 70 67
205 213 196 192 196 189 185 188 191 191 192 202 210 202 203 214 215 208 211 224 223 211 220 232 206 144 146 169 178 174 166 167 167 164 168 167 159 157 159 159 159 160 158 154 151 151 155 156 156 156 156 155 155 155 154 150 148 144 138 132 129 129 130 129 128 128 126 123 120 116 113 110 107 105 102 100 98 94 91 88 85 81 75 71 69 67
210 204 201 213 205 189 205 199 187 189 196 198 206 208 202 207 215 213 210 217 217 210 218 217 197 176 166 172 178 176 172 174 171 165 163 164 163 159 155 156 158 159 157 155 156 158 158 158 158 157 157 157 157 157 154 149 146 143 138 133 131 133 133 132 132 131 129 126 122 119 116 113 111 109 106 104 101 97 94 89 85 81 76 71 68 65
216 194 200 221 200 150 318 227 185 184 196 198 203 209 206 205 211 213 214 217 214 216 227 217 205 203 190 175 178 179 179 180 173 165 159 159 160 155 153 159 161 160 160 160 162 163 162 161 159 158 158 159 160 158 153 150 147 144 139 135 134 136 137 135 134 133 131 128 124 122 119 117 114 113 111 108 103 99 94 88 84 80 76 72 69 66
225 194 192 212 200 164 23 322 182 188 197 199 200 205 206 207 212 213 214 218 219 226 240 240 224 219 202 183 181 178 178 177 165 159 158 162 166 163 161 165 166 165 166 166 166 165 164 162 159 159 160 161 162 158 153 151 149 146 143 139 138 140 139 137 136 135 134 130 128 126 123 120 119 116 113 108 103 99 94 88 83 78 75 73 69 66
219 194 184 201 206 184 164 146 204 210 211 210 207 204 203 206 212 214 214 217 219 223 233 236 226 222 213 200 188 171 162 159 157 162 166 169 173 171 168 171 172 171 170 168 167 166 164 161 160 160 162 163 161 157 154 153 150 148 146 142 141 141 140 138 138 137 136 133 131 129 125 122 120 116 113 109 104 100 95 89 84 78 74 71 68 66
207 200 176 197 216 197 175 183 205 209 219 227 223 215 209 207 209 209 211 216 215 216 222 222 215 209 198 200 189 160 152 157 160 167 172 174 178 177 174 176 177 174 170 167 166 166 163 162 162 162 163 162 160 158 157 154 151 150 149 144 142 142 140 140 139 138 137 134 131 128 124 123 122 119 117 113 108 103 97 91 87 81 77 73 69 68
199 200 178 191 216 208 191 194 200 201 214 225 224 219 217 216 215 212 211 212 211 215 220 216 214 210 186 185 183 162 162 170 171 173 177 178 180 180 181 182 180 175 169 166 166 165 163 163 164 164 163 160 158 159 158 155 153 150 147 143 142 142 141 141 141 139 136 133 131 128 126 125 122 119 117 114 111 109 103 98 93 86 82 78 73 71
194 205 196 182 199 212 193 186 201 214 217 218 199 210 219 220 219 217 214 210 207 212 220 216 216 221 204 189 186 180 181 184 178 174 175 175 178 185 189 186 179 174 171 169 168 165 162 164 165 163 160 158 157 157 156 154 150 144 143 143 142 143 143 143 142 139 136 133 132 130 128 126 124 123 122 121 119 114 107 104 100 94 88 84 79 75
190 207 214 185 194 212 183 175 213 225 208 116 75 73 242 234 227 225 224 218 208 206 214 216 216 221 215 198 198 200 195 187 175 168 171 174 178 186 189 184 176 174 173 170 168 165 166 166 163 159 158 157 155 154 154 152 145 141 142 143 143 145 145 144 142 139 137 135 133 133 133 131 130 130 129 126 120 114 109 106 103 98 93 89 84 79
186 202 225 208 199 208 191 190 216 213 125 112 109 86 94 207 216 223 229 223 211 207 213 217 219 223 217 206 209 203 182 168 161 164 173 175 177 185 187 179 176 176 173 170 168 165 166 165 160 157 156 153 152 152 152 149 144 141 142 144 145 146 146 144 142 140 139 139 139 139 138 136 134 132 129 126 121 116 114 111 107 103 100 97 91 85
187 197 221 222 208 212 211 206 207 164 134 172 196 177 181 193 198 209 224 221 210 211 216 216 218 222 215 207 198 165 147 152 160 173 182 178 177 184 183 173 175 176 170 168 167 163 163 164 160 157 154 150 152 154 151 148 144 140 141 145 146 146 146 146 145 145 146 145 144 142 141 138 136 135 132 129 123 120 121 118 114 110 104 100 97 91
189 197 210 216 210 219 231 225 217 211 214 216 200 182 185 204 205 206 225 228 210 211 217 214 214 217 211 190 166 149 148 166 183 186 186 182 179 180 175 170 174 175 170 167 165 161 160 161 157 154 152 150 152 154 151 148 143 140 143 148 149 149 150 151 150 150 149 147 144 143 142 141 140 138 135 131 126 125 125 123 119 114 108 102 99 94
200 206 210 211 208 216 237 241 229 231 237 208 162 159 169 174 164 186 226 237 206 203 211 213 213 213 201 177 165 159 165 194 212 193 179 178 176 173 170 169 170 171 171 169 164 159 157 156 153 152 152 152 153 153 150 147 143 143 148 151 152 153 154 154 154 152 149 146 145 145 144 144 143 141 137 134 131 131 131 128 124 120 116 109 100 97
206 208 211 214 213 213 224 237 239 245 238 130 138 152 160 153 150 180 219 241 190 192 202 208 212 208 191 174 171 176 188 213 240 175 159 164 169 167 166 168 167 166 168 169 164 159 158 156 153 153 155 155 153 150 149 147 145 146 151 153 155 156 156 154 153 150 147 146 146 146 146 145 144 142 140 137 136 136 133 127 123 117 110 102 94 93
199 205 211 216 219 212 213 230 240 236 93 122 152 155 145 148 176 205 210 311 353 218 202 205 209 199 184 178 182 190 191 173 61 125 145 155 162 164 168 170 169 166 165 163 160 160 161 159 154 154 156 155 151 149 149 148 148 150 153 156 157 156 154 153 151 148 147 147 147 148 147 146 144 141 141 141 140 139 134 128 126 121 111 100 91 89
187 200 211 216 225 221 211 225 234 225 138 136 148 140 145 174 204 216 175 211 308 300 206 208 206 191 183 188 194 186 128 94 112 136 148 155 158 162 169 171 168 164 157 153 156 161 161 155 151 153 155 152 150 150 150 150 151 153 156 158 157 155 153 151 149 148 148 148 149 148 147 145 145 143 143 144 144 140 136 132 130 126 118 111 104 97
178 196 205 203 217 228 222 223 231 231 183 164 154 147 173 206 226 40 113 197 304 329 187 205 203 186 183 186 179 136 99 110 134 145 151 157 158 162 165 164 165 164 155 152 160 164 156 148 149 152 151 151 152 151 151 152 154 156 158 157 155 153 151 150 149 149 150 150 149 148 147 146 145 145 147 149 149 145 142 139 136 131 130 130 127 120
183 214 218 199 199 220 224 218 229 278 160 172 170 150 134 84 44 17 359 108 129 151 166 183 185 179 178 175 155 126 116 128 142 149 154 160 163 163 161 159 163 166 162 161 166 162 150 146 149 151 151 153 153 153 153 155 155 156 158 155 153 152 151 150 151 150 150 151 149 148 149 148 149 152 154 155 155 152 149 149 147 139 137 143 134 122
210 254 273 256 237 263 271 114 63 60 135 155 105 66 84 78 57 21 357 22 77 104 126 166 171 168 173 171 154 137 136 143 149 154 159 164 165 162 161 163 165 165 165 165 164 156 150 149 150 150 152 154 153 154 157 158 157 157 157 154 153 153 152 152 153 152 151 152 152 152 152 152 154 157 158 160 161 156 154 161 166 156 147 146 129 107
167 220 293 295 285 298 291 223 144 86 138 143 96 80 87 73 67 57 8 17 41 33 19 152 163 166 171 169 159 151 151 155 159 160 162 164 162 161 165 167 165 165 167 165 158 153 152 150 149 151 153 154 154 156 158 159 159 158 156 154 154 155 155 154 154 153 154 155 154 155 156 156 158 160 161 166 168 162 162 169 170 165 160 154 138 107
159 178 241 239 224 254 268 206 203 248 183 178 173 130 128 136 96 69 41 46 55 30 360 51 155 165 168 166 164 161 154 157 166 168 163 159 159 165 172 168 165 169 170 163 155 152 151 151 152 154 154 154 157 159 159 160 161 158 156 155 157 157 156 156 155 156 157 157 157 159 161 161 161 162 165 171 171 166 168 169 163 162 162 149 143 141
133 191 253 246 238 247 250 166 144 179 198 202 207 195 173 166 152 109 67 70 83 87 63 64 159 163 166 166 168 164 153 156 168 169 162 161 164 172 175 168 167 173 170 160 155 154 154 155 156 155 154 155 159 160 160 161 161 159 157 158 159 159 158 157 159 160 161 160 160 163 165 164 164 165 166 172 174 167 164 169 171 165 142 100 76 78
184 243 251 245 254 255 243 204 171 191 189 183 201 209 145 131 159 158 125 111 119 126 137 160 159 160 167 168 170 167 156 157 167 168 163 164 171 178 175 169 172 175 169 161 159 158 158 157 156 155 156 158 159 161 161 162 162 161 160 161 162 161 159 159 162 163 163 163 165 168 167 166 170 172 169 170 174 165 144 139 136 124 119 110 93 87
220 257 258 237 257 269 244 116 347 268 225 170 128 165 159 141 155 161 153 169 174 149 147 152 152 157 166 168 174 173 160 157 166 171 168 170 176 179 173 170 174 176 168 163 162 161 159 159 157 156 157 159 160 161 162 162 163 162 163 164 164 162 160 161 164 166 166 167 170 171 170 169 175 180 173 169 175 167 145 141 132 114 115 120 133 137
237 297 306 287 282 320 49 54 22 351 317 20 35 37 189 192 202 206 196 189 178 155 150 156 159 163 165 166 173 174 163 158 164 171 175 175 176 177 175 173 176 175 168 164 164 162 160 159 157 157 158 159 160 162 162 164 165 164 166 167 165 163 163 165 167 169 170 172 172 173 174 172 175 181 177 172 174 168 156 160 164 153 148 140 124 130
Height
740 747 747 741 737 734 732 732 730 723 720 723 729 733 727 725 725 716 719 721 722 736 736 735 757 771 773 776 775 776 777 778 784 793 792 782 776 775 776 780 784 789 794 794 795 798 802 806 808 811 812 812 816 819 823 826 826 825 825 824 823 822 823 829 833 830 824 823 823 824 825 826 827 828 829 830 831 832 832 833 834 834 835 835 835 836
739 745 737 731 729 728 729 730 728 724 720 721 725 729 726 722 719 715 720 722 721 732 733 734 756 770 771 775 774 774 777 777 780 786 786 780 777 775 776 783 788 792 795 796 798 800 800 803 806 810 812 813 817 821 825 827 828 827 826 825 824 824 825 828 834 832 826 825 825 825 826 827 827 828 830 831 832 833 834 834 835 835 836 836 836 836
740 737 729 726 727 726 728 727 727 725 723 724 721 725 728 717 717 723 724 724 723 729 734 738 755 771 772 773 776 775 775 776 776 777 778 778 777 775 778 786 789 791 794 796 800 802 801 802 805 809 812 814 816 821 825 826 827 828 827 827 826 826 826 829 833 833 829 827 826 827 827 827 828 829 831 832 833 834 835 836 836 836 837 837 837 838
738 732 724 723 725 725 726 726 726 726 728 728 720 724 725 711 720 735 732 728 724 726 737 742 754 773 782 784 784 779 773 773 775 776 776 776 776 777 781 785 787 788 792 797 801 802 802 804 805 806 812 816 816 820 824 824 826 827 827 827 827 828 829 831 833 832 830 828 828 828 828 828 829 831 832 833 834 835 836 837 837 838 838 838 839 839
730 724 719 721 724 723 725 727 726 730 735 730 719 720 717 711 722 733 733 732 728 730 736 744 765 781 784 788 784 775 774 775 776 777 777 775 775 779 782 783 784 786 790 794 799 801 802 805 806 806 811 815 815 817 820 822 824 826 827 827 829 832 834 834 833 832 830 829 828 828 829 830 831 832 833 834 835 836 837 838 838 839 839 839 840 840
724 718 716 721 722 721 725 728 725 729 736 732 721 712 709 716 725 727 731 735 741 746 737 745 780 791 779 779 778 774 777 779 777 778 778 777 776 778 781 782 784 787 789 792 795 798 800 804 807 808 811 812 812 815 818 819 823 827 829 830 833 835 837 836 834 832 831 829 828 828 829 830 831 833 834 835 836 837 838 839 839 840 841 841 842 842
717 712 714 719 721 723 725 724 722 725 733 733 722 710 708 715 722 724 730 737 745 749 738 739 765 785 787 781 774 775 779 779 779 778 777 777 776 777 779 782 785 786 789 792 795 797 800 804 807 809 811 812 812 815 817 819 824 828 831 833 834 836 836 836 834 833 831 830 829 829 829 830 831 833 835 836 837 838 839 840 840 841 842 842 843 843
711 712 715 716 719 722 723 722 722 723 730 727 714 713 715 713 718 723 729 736 736 737 742 740 745 771 793 784 769 771 777 778 779 778 776 774 774 777 778 781 783 785 788 792 795 798 801 805 806 808 812 813 814 817 819 822 826 830 832 834 834 835 835 834 833 833 831 830 830 830 831 832 833 834 836 837 838 839 840 841 841 842 843 843 844 844
708 711 711 712 718 722 721 720 719 722 726 716 708 717 719 714 719 723 729 734 729 737 755 749 741 760 780 777 769 772 777 776 775 775 775 774 773 775 778 780 783 785 787 790 795 799 802 805 806 808 811 814 816 819 821 824 829 832 832 834 834 834 834 833 832 832 831 831 831 831 833 833 835 836 837 838 839 840 841 841 842 843 844 844 845 845
705 704 705 712 720 721 719 714 713 720 721 708 708 719 719 719 722 724 730 730 729 747 760 749 742 754 770 771 771 778 781 775 771 770 769 770 771 774 777 780 783 785 788 791 796 800 803 805 806 808 810 814 817 820 822 826 831 832 832 833 834 833 833 832 832 832 832 832 833 833 834 835 836 837 838 839 839 840 841 842 843 844 845 846 846 846
701 705 709 715 718 715 713 711 711 717 714 708 716 724 726 726 725 727 727 727 742 759 754 740 737 748 764 766 762 772 775 766 764 766 766 767 769 772 777 780 783 786 790 794 797 800 805 806 807 809 811 814 818 821 824 827 829 830 831 832 832 833 833 833 832 833 833 834 834 835 836 836 837 838 839 839 839 840 841 842 844 845 846 847 847 848
707 716 715 713 711 707 710 713 713 713 711 716 725 727 735 737 734 738 736 736 756 762 745 733 733 743 759 761 757 762 763 759 759 761 765 767 767 772 777 779 783 786 791 796 798 802 805 807 809 810 812 815 818 822 824 826 827 829 830 831 831 832 833 833 833 833 834 835 836 837 837 838 838 839 839 840 840 841 842 843 844 846 847 848 849 849
712 716 713 712 707 703 710 716 718 717 714 722 726 727 742 751 754 760 755 750 756 750 736 729 734 746 748 743 748 752 753 752 750 753 761 764 766 772 776 778 784 788 792 796 799 802 804 807 809 810 812 815 818 822 825 826 827 827 829 830 830 832 833 833 834 834 836 836 837 838 838 839 840 840 841 841 842 842 843 845 846 847 848 849 850 850
719 718 712 714 710 704 706 713 723 724 718 724 725 726 741 752 766 775 762 756 757 746 731 724 735 751 742 729 731 737 741 741 740 747 756 760 766 772 773 779 786 790 794 797 799 802 803 806 808 810 813 815 818 822 824 825 826 827 829 829 830 832 833 834 835 835 837 838 838 839 840 841 841 842 842 843 844 844 845 846 847 849 849 850 851 851
729 729 714 711 710 706 703 705 715 718 717 722 716 718 730 735 752 767 757 755 759 748 736 729 737 750 746 735 725 723 730 733 734 742 749 758 767 772 774 781 789 793 795 797 799 801 803 805 808 811 814 816 819 822 824 825 826 827 829 830 831 833 834 835 836 837 838 839 840 841 841 842 843 843 844 845 845 846 847 848 849 850 850 851 852 852
721 722 706 703 704 704 707 704 703 710 720 722 712 717 725 718 727 747 745 741 744 746 744 738 739 742 743 739 727 722 728 729 734 742 749 758 766 771 778 784 790 794 795 797 799 801 804 806 809 812 815 818 820 822 824 825 827 828 830 831 833 834 835 837 838 839 840 841 842 842 843 843 844 845 845 846 847 847 848 849 850 850 851 852 852 853
715 713 700 702 707 705 708 705 698 707 719 721 720 720 714 704 711 735 745 739 741 751 747 739 743 746 749 747 734 728 730 730 737 747 752 759 766 773 780 785 790 793 795 797 799 801 804 807 810 813 815 818 820 822 824 826 828 829 831 833 834 836 837 838 840 841 842 842 843 844 844 845 845 846 847 847 848 849 849 850 851 851 852 853 854 854
702 709 704 706 713 707 704 705 702 702 707 717 724 715 706 706 709 723 745 751 754 758 747 740 745 748 754 757 743 734 735 735 739 747 754 761 769 775 780 785 789 791 794 796 798 801 804 806 809 812 815 818 820 822 824 826 828 830 832 834 835 837 839 840 841 842 843 844 845 846 846 846 847 847 848 849 849 850 850 851 852 853 854 854 855 855
689 710 715 706 709 708 704 710 712 706 701 706 711 704 707 724 726 726 742 756 761 760 751 747 747 741 741 746 743 740 737 736 740 747 754 762 769 774 779 783 787 790 793 795 798 801 803 805 809 812 815 818 821 823 824 827 830 832 834 835 837 839 840 841 843 844 845 845 846 847 847 847 848 849 849 850 850 851 852 852 853 854 855 856 856 856
684 708 723 708 703 709 709 713 718 716 707 701 702 701 704 717 723 722 729 740 751 757 755 753 752 741 727 725 734 737 733 734 740 746 753 761 768 772 776 781 785 788 791 794 797 801 802 806 809 812 816 819 822 824 826 829 831 833 836 837 838 840 841 843 844 845 846 847 847 847 848 848 849 850 850 851 852 852 853 854 855 856 857 857 858 858
686 704 722 714 705 711 714 711 711 713 713 711 711 711 708 712 716 718 721 724 732 746 754 757 759 742 717 712 724 728 727 731 735 742 751 758 765 770 773 779 784 787 790 793 797 800 803 807 810 814 817 820 824 826 827 830 832 835 837 837 839 841 842 844 845 846 847 847 848 849 849 850 850 851 852 852 853 854 855 856 857 858 858 859 859 859
692 701 714 716 712 713 710 703 702 704 706 711 715 712 710 715 721 732 737 725 718 730 738 746 754 736 709 706 717 720 723 728 730 737 745 753 762 767 771 778 783 785 788 791 796 800 804 808 811 815 818 821 825 826 828 831 832 834 836 837 839 841 842 844 845 847 848 848 849 850 850 851 852 852 853 854 855 856 857 858 859 859 860 860 860 860
691 696 707 715 709 706 703 697 699 700 696 703 712 706 704 711 717 731 741 729 721 723 719 727 744 736 713 706 714 718 721 723 727 734 742 750 758 765 772 779 782 785 788 791 796 800 803 808 811 815 819 822 825 827 829 830 832 834 836 837 838 839 841 844 846 847 848 849 850 851 852 853 853 854 855 856 857 858 859 860 860 861 861 861 861 861
697 700 706 711 704 700 699 696 697 698 695 705 711 703 701 707 709 716 720 718 725 727 720 728 745 742 723 712 713 716 717 720 725 733 742 750 757 765 773 779 782 786 789 792 796 800 804 808 812 815 819 822 825 827 828 830 831 834 835 837 838 839 841 844 846 847 849 850 851 852 853 854 855 856 857 858 859 859 860 861 861 862 862 862 863 862
705 703 702 712 718 715 711 709 709 705 701 705 707 704 703 703 707 714 712 714 728 729 721 730 742 738 726 720 718 715 715 721 727 734 744 751 758 767 774 778 783 786 790 793 797 801 805 808 812 815 818 821 824 826 828 830 831 833 835 837 838 840 842 844 846 848 849 851 852 853 854 855 856 857 858 859 860 861 862 862 863 864 864 864 864 863
704 699 696 711 726 727 725 724 719 710 706 705 703 704 706 704 707 716 719 725 734 729 723 726 732 734 730 725 724 720 719 727 732 738 745 751 759 768 773 779 782 785 789 793 796 801 804 807 810 813 817 820 823 825 827 830 831 833 836 837 838 840 842 844 846 848 850 852 853 854 855 856 858 859 860 861 862 862 863 864 864 865 865 865 865 864
701 695 692 700 708 709 713 714 706 702 709 713 709 705 706 706 705 710 722 730 726 725 729 723 721 735 738 729 726 725 726 732 736 740 746 751 759 767 773 779 782 784 789 792 796 801 803 806 810 812 816 819 822 825 827 829 831 833 835 836 838 840 843 845 847 849 851 852 854 855 856 857 859 860 861 862 863 864 864 865 865 866 866 866 865 865
703 702 697 697 696 694 696 696 694 699 708 712 711 708 707 707 706 710 722 724 717 727 736 720 714 733 736 727 727 728 730 735 738 743 749 753 759 766 773 780 783 785 789 792 797 800 802 806 809 812 815 818 821 824 826 828 831 833 835 836 838 841 843 845 847 849 851 853 855 856 857 858 860 861 862 863 864 865 866 866 867 867 867 866 866 866
704 707 702 699 698 697 696 690 688 695 701 704 708 710 708 708 710 714 720 716 714 727 731 715 713 724 723 721 726 726 728 733 737 744 752 757 761 767 774 780 783 787 790 793 797 799 802 805 807 810 814 817 820 823 825 828 830 832 835 836 839 842 844 846 848 850 852 854 855 857 858 859 861 862 863 864 865 866 867 867 868 868 868 867 867 866
704 708 703 702 704 704 703 697 692 695 700 702 705 707 708 710 711 713 717 715 715 721 720 714 716 718 713 715 719 721 725 729 734 745 755 759 763 768 774 779 783 786 790 793 796 798 801 803 806 809 813 816 819 821 823 827 829 831 834 837 840 842 844 846 848 850 853 855 856 858 859 860 862 863 864 865 866 867 868 869 869 869 869 868 868 867
707 709 702 704 711 711 709 708 705 702 704 705 704 703 705 710 712 714 717 716 719 724 720 717 723 722 712 708 710 715 724 730 737 748 756 759 762 766 772 777 779 783 787 791 794 797 799 802 805 809 812 815 818 820 823 826 828 831 834 837 840 842 844 846 849 851 854 855 856 858 859 860 862 863 865 866 867 868 869 870 870 870 870 869 869 868
709 709 704 709 719 716 710 714 714 709 711 715 713 708 706 710 713 715 716 716 720 725 725 725 729 725 714 708 709 714 723 732 739 746 752 758 761 764 769 772 773 778 783 788 792 795 797 801 804 808 811 814 816 819 822 825 828 831 834 837 840 842 844 847 849 852 854 855 856 858 859 861 862 864 866 867 868 869 870 871 871 871 871 871 870 870
707 709 710 715 724 717 708 712 715 717 726 729 718 709 707 708 710 711 712 712 714 719 724 727 724 716 711 712 715 719 726 732 736 740 745 752 759 765 767 768 770 774 780 785 789 792 796 800 804 807 810 812 816 819 822 825 828 831 833 837 839 842 844 847 849 852 853 855 856 858 859 861 863 865 866 867 869 869 870 871 872 872 872 872 871 871
706 708 706 710 721 720 709 709 718 727 735 729 712 704 705 706 708 711 711 711 710 712 715 716 714 710 709 714 718 721 724 726 729 734 739 746 756 764 765 765 768 773 778 782 786 790 795 799 803 806 809 812 816 819 823 826 828 830 833 836 839 842 844 847 849 851 853 855 856 858 860 862 863 866 867 868 869 870 870 872 873 873 873 873 873 873
709 710 706 704 714 715 708 717 735 740 732 721 710 706 706 705 705 708 709 706 706 709 710 711 711 709 708 711 713 717 720 721 725 732 737 742 750 757 760 762 767 772 776 781 785 789 793 797 801 805 808 812 816 819 823 826 827 829 832 835 839 841 844 847 849 851 853 855 856 858 860 862 864 866 867 869 870 870 871 873 873 873 874 873 874 874
709 713 709 704 709 711 711 726 740 734 721 717 715 713 712 711 710 714 717 710 705 708 710 710 710 707 706 708 709 712 717 721 726 731 735 739 744 750 755 759 765 770 773 777 782 787 792 795 799 803 807 811 816 820 822 824 825 828 831 835 838 841 844 847 849 851 853 855 856 858 860 862 864 866 868 869 870 871 872 873 874 874 874 874 874 874
703 711 712 709 708 709 714 721 722 722 724 724 719 713 710 711 711 716 722 715 704 704 707 707 709 707 706 708 709 712 718 725 731 734 733 735 741 746 751 757 763 768 772 777 782 787 792 796 799 804 807 811 816 819 821 823 824 826 830 835 838 841 844 847 849 851 853 854 856 858 860 862 864 866 868 869 870 872 873 873 874 874 874 874 874 874
698 704 709 713 713 710 715 718 717 726 730 720 710 705 703 705 703 706 717 716 704 700 702 703 706 706 705 709 714 718 724 732 735 733 731 733 737 742 749 756 762 767 771 777 782 787 792 796 800 804 808 811 815 818 820 822 822 825 830 834 838 841 844 846 848 850 852 853 855 858 860 862 864 866 868 869 871 872 873 874 874 874 874 874 874 874
699 699 701 711 715 715 721 724 720 722 717 704 700 701 702 704 702 706 722 721 701 695 699 699 702 703 704 710 717 720 727 733 730 723 724 730 734 740 748 755 760 766 772 776 780 785 791 796 801 805 808 811 815 817 819 820 821 825 830 834 837 840 842 845 847 849 851 853 855 858 860 863 865 867 868 870 871 873 873 874 874 874 874 874 873 874
707 706 706 712 716 715 721 723 716 712 706 699 700 702 701 701 703 716 734 724 697 690 695 697 699 701 703 710 717 720 723 725 719 714 718 727 733 739 747 753 758 765 770 774 779 785 790 795 800 803 806 810 813 815 817 819 821 825 830 833 836 839 841 844 846 848 851 853 855 858 861 863 865 867 868 870 871 872 873 873 874 874 874 873 873 874
713 711 710 713 713 712 719 723 716 709 704 699 698 699 699 704 713 725 731 718 699 695 695 694 697 700 703 710 715 715 717 718 716 715 719 726 733 739 746 752 757 763 768 774 780 785 790 794 797 800 805 808 810 813 816 818 821 825 829 832 835 838 840 843 845 847 850 853 856 859 861 863 866 867 868 870 871 872 873 873 873 874 873 873 874 874
717 717 714 714 713 708 711 717 716 712 705 698 697 698 700 711 721 720 714 708 703 700 696 695 697 698 703 710 712 712 714 716 718 720 723 728 734 739 745 750 755 761 767 773 780 785 789 793 796 800 804 807 809 811 814 818 822 825 829 832 834 837 840 842 845 848 850 853 856 859 861 864 866 867 869 870 871 872 872 873 873 873 873 874 874 874
710 716 714 711 711 709 710 714 719 718 709 699 700 704 706 710 714 709 705 705 703 700 699 700 699 699 704 709 711 713 717 718 720 723 726 730 735 740 745 750 755 762 767 774 781 785 787 791 796 800 803 805 808 811 814 818 822 825 828 831 834 837 840 842 845 848 851 854 857 859 862 864 866 867 869 870 870 871 872 872 873 873 873 873 873 873
707 711 710 704 702 706 713 715 715 714 705 698 702 708 708 708 707 705 705 705 702 701 701 702 702 703 706 709 713 718 720 721 723 725 728 732 736 740 745 751 756 762 768 775 781 785 786 790 795 799 802 805 808 811 814 818 821 825 828 831 834 837 839 842 845 848 851 854 857 859 862 864 866 867 868 869 870 871 871 872 872 872 873 873 872 872
710 708 708 704 699 701 708 710 707 705 703 703 705 707 707 707 707 707 707 704 703 703 702 702 705 707 708 711 715 719 722 723 724 726 729 732 736 740 746 751 756 762 768 775 780 783 786 789 793 797 801 804 807 810 814 818 821 824 827 830 833 836 839 842 845 847 851 854 856 859 861 863 865 867 868 869 870 870 871 872 871 871 872 872 872 872
704 703 706 707 705 704 704 702 700 701 703 705 706 706 707 708 707 707 708 706 706 706 704 704 707 708 709 712 716 719 722 723 724 727 729 732 737 743 748 752 757 763 769 774 778 781 785 789 792 796 799 803 807 810 814 818 821 824 827 830 833 836 839 841 844 847 851 854 856 859 861 863 865 866 867 868 869 869 870 870 870 871 871 871 871 871
700 701 705 705 706 710 709 702 700 703 703 703 705 707 707 708 708 708 709 709 709 709 708 707 708 709 711 713 716 720 722 723 725 727 729 734 740 745 749 753 759 764 768 772 775 779 784 787 791 795 798 802 806 810 814 817 821 823 827 830 833 836 838 841 844 847 850 853 855 858 860 862 864 865 866 867 867 868 869 869 869 870 870 870 870 871
704 704 705 704 703 707 706 702 700 703 704 703 704 705 705 707 709 709 710 711 711 711 712 711 710 711 712 714 717 720 722 724 726 727 730 736 742 746 749 754 760 765 769 772 774 777 781 785 789 793 797 800 805 809 813 816 820 823 827 830 833 835 838 841 844 847 849 852 855 857 859 861 863 864 865 866 866 867 868 868 869 869 869 870 870 870
709 706 703 703 703 702 700 701 702 704 705 705 704 704 704 706 708 709 711 711 711 712 714 713 713 713 714 716 718 719 722 725 726 727 731 738 742 746 750 754 760 766 769 771 773 775 779 783 787 791 796 799 804 808 812 815 819 822 826 829 832 835 838 841 844 847 849 851 854 856 858 860 861 862 863 864 865 866 867 867 867 868 869 870 871 871
706 705 700 701 707 707 705 707 709 709 712 712 707 706 707 707 708 710 711 711 711 712 714 716 716 717 718 718 719 720 722 725 726 728 733 738 742 746 750 754 761 766 768 771 773 776 779 783 786 790 795 799 803 807 811 814 818 822 825 829 831 834 837 841 844 846 848 850 853 855 856 858 860 860 861 862 864 864 866 867 868 868 869 870 871 871
703 706 703 705 712 713 709 708 708 711 716 716 710 708 708 708 709 711 710 710 712 712 713 716 718 719 721 721 722 722 723 724 726 729 733 737 742 746 750 755 760 764 767 770 772 774 778 782 786 790 795 798 802 806 810 814 817 821 825 827 830 833 837 840 843 845 847 849 851 853 855 856 858 859 859 860 862 863 865 867 868 869 870 870 871 872